星链-37768(STARLINK-37768)

导读

STARLINK-37768(NORAD编号69331)是美国太空探索技术公司(SpaceX)星链低轨通信星座的组成卫星。作为星链组网的常规部署节点,该卫星主要承担全球宽带通信覆盖任务,支持文本、语音及数据传输服务,可补全星链网络在特定区域的信号覆盖能力。目前公开可查的星链在轨卫星总数已超1万颗,该卫星遵循星链卫星通用设计规范,运行于近地轨道,由SpaceX负责运营维护,相关具体发射及轨道参数可通过北美防空司令部(NORAD)公开轨道数据库查询获取。

基本信息
目录编号:
69331
目录名称:
STARLINK-37768
国际标识:
2026-122C
轨道中心:
EARTH
卫星名称:
星链-37768
卫星全名:
星链-37768(STARLINK-37768)
卫星状态:
在轨 (已飞行93 天)
发射日期:
2026-06-03 UTC
国别 :
美国 (US)
星等 :
--
轨道信息
数据来源 国际轨道数据 AOE轨道数据
星历时间 2026-09-04T01:17:04+0800
20小时前
查看轨道信息
2026-09-03T22:00:00+0800
23小时前
查看轨道信息
半长轴 6843.657km 6843.712km
偏心率 0.0001618 0.0001409
轨道倾角 97.284° 97.285°
近地点辐角 89.714° 102.010°
升交点赤经 275.517° 275.385°
平近点角 270.429° 223.074°
近地点 464.412km 464.61km
远地点 466.628km 466.54km
周期 93.906分钟 93.907分钟
每日圈数 15.334528 15.334345
详细信息
固有亮度:
5
最大亮度:
2.5
卫星平台:
Starlink V1.0
覆盖范围:
全球
运营商:
太空探索技术公司
运营商所在国:
美国
制造商(研发单位):
太空探索技术公司
制造商所在国:
美国
使用方式:
暂无
卫星简介
Starlink 计划是 SpaceX 推出的全球卫星互联网项目,通过发射低轨道卫星,为全球尤其是偏远地区提供高速、低延迟的互联网服务。自 2019 年起,Starlink 已部署数千颗卫星,旨在缩小全球数字鸿沟,推动互联网普及。该项目还为军事、航空等行业提供通信支持,带来广泛经济效益。
2D轨道图
3D轨道图
轨道高度分析图
轨道倾角分析图
轨道综合分析图
查看轨道综合分析图
交会数据列表
事件ID 空间交会对象 最接近时刻(TCA) 交会距离 交会风险概率(CRP) 交会风险指数(CRI) 操作
CDM_260905-211505-468606-933121
OBJECT E (54686)
2026-09-05T
21:15:51+0000
1.241 km
极远距离
1.250649E-5 中风险 0.57
CDM_260905-120905-270006-933121
2026-09-05T
12:09:26+0000
2.194 km
极远距离
2.214166E-6 低风险 0.42
CDM_260906-144804-847406-933121
2026-09-06T
14:48:45+0000
2.243 km
极远距离
2.139879E-6 低风险 0.42
CDM_260905-160405-270006-933121
2026-09-05T
16:04:16+0000
2.259 km
极远距离
2.071907E-6 低风险 0.41
CDM_260830-105106-223606-933121
2026-08-30T
10:51:44+0000
2.637 km
极远距离
1.575592E-6 低风险 0.39
CDM_260905-162806-863006-933121
STPSAT-7 (68630)
2026-09-05T
16:28:44+0000
2.339 km
极远距离
1.338029E-6 低风险 0.38
CDM_260906-161805-229406-933121
2026-09-06T
16:18:54+0000
2.797 km
极远距离
1.190661E-6 低风险 0.37